Погода в Невинномысске

Погода в Невинномысске : погода сейчас, прогноз погоды и архив. Всё, что Вы хотите узнать о погоде в Невинномысске!

Поиск расширенной информации на нашем сайте:

Другие новости

Новости СМИ2

Главная страница сайта

Новости сайта

03.07.2017

Напоминаем, что на нашем специализированном сайте Метеоцентр.Азия вы можете получить высокодетализированные автоматические прогнозы погоды по пунктам России, СНГ и мира в авиационном формате (включающие направление и скорость ветра, видимость, явления погоды, количество и форму облачности, нижнюю и верхнюю границу облачности).

Рекомендуем: Возвращаемся в Гондар и, заселившись в гостиницу.

Погода в Невинномысске - сегодня

Время (UTC), дата Ветер
(°,м/с) 
Видим.   Явления Облачность Т
(°С)
Тd
(°С)
f(%) Тe
(°С)
Pmin
(гПа)
dP
(гПа)
Po
(мм)
O2
(г/м3)
Тmin Tmax R s Состояние
почвы
06 15.08.17 060 (СВ) 20000 м    10/3 1000 м верхняя 
[Cu hum|Ci fib]
+24.6 +13.1 49 +31  1011.8  0.4  730  267           
09 15.08.17 100 (В) 5-10{10}  20000 м    10/3 1000 м верхняя 
[Cu hum|Ci fib]
+28.2 +8 28 +28  1011.7  0.3  730  265           
12 15.08.17 100 (В) 6-11{13}  20000 м    10/3 1000 м средняя, верхняя 
[Cu hum|Ac trans|Ci fib]
+27.4 +9.7 33 +29  1011.7  0.1  730  266           
15 15.08.17 070 (В) 3{11}  20000 м    10/10 1000 м кучево-дожд. 
[Cb calv]
+24.8 +12.8 47 +31  1013  0.9  731  267    +30.2       
18 15.08.17 090 (В) 20000 м    8/0 средняя 
[Ac trans]
+21.3 +9.5 47 +22  1013.6  0.1  731  271           
21 15.08.17 070 (В) 20000 м    3/0 верхняя 
[Ci fib]
+18.7 +12.5 67 +25  1013.4  -0.5  730  273           
00 16.08.17 070 (В) 20000 м    9/0 средняя 
[Ac trans]
+16.7 +12.8 78 +24  1013.3  -0.3  730  275           
03 16.08.17 060 (СВ) 20000 м    ясно 
+15.4 +12.4 82 +21  1013.7  0.2  730  276  +15.4        очень
сухая
с трещинами 
06 16.08.17 070 (В) 20000 м    ясно 
+24.6 +12.4 47 +30  1012.7  0.2  731  268  +15.4         
09 16.08.17 070 (В) 6{13}  20000 м    ясно 
+28.5 +9.3 30 +29  1011.7  -0.5  730  265           
12 16.08.17 080 (В) 4{13}  20000 м    3/0 верхняя 
[Ci sp]
+30.4 +6.5 22 +30  1010.9  -0.6  730  264           
15 16.08.17 080 (В) 4-10{13}  20000 м    10/0 средняя, верхняя 
[Ac cast|Ci]
+28.3 +9.2 30 +29  1011.1  730  265    +30.7       
18 16.08.17 100 (В) 3{10}  20000 м    ясно 
+23.4 +10.4 44 +26  1012.5  0.7  730  269           
21 16.08.17 070 (В) 20000 м    ясно 
+21 +9.5 48 +22  1012.2  -0.6  730  271           
00 17.08.17 060 (СВ) 20000 м    ясно 
+19 +10.8 59 +23  1011.8  -0.6  729  273           
03 17.08.17 090 (В) 20000 м    ясно 
+17.8 +13.4 75 +26  1012.3  0.4  730  273  +17.6        очень
сухая
с трещинами 
06 17.08.17 080 (В) 5{10}  20000 м    8/8 1000 м 
[Cu med, cong]
+23.4 +16.5 65 +36  1011.5  730  267           
09 17.08.17 090 (В) 5-11{14}  20000 м    6/3 1000 м верхняя 
[Cu med, cong|Ci fib]
+30.2 +12.6 34 +36  1009.7  -1  729  262           
12 17.08.17 080 (В) 5-10{13}  20000 м    8/3 1000 м верхняя 
[Cu med, cong|Ci fib]
+30.7 +11.5 31 +35  1008.4  -1.2  728  262           
15 17.08.17 080 (В) 3{11}  20000 м    10/8 1000 м средняя 
[Cu Sc|Ac cast]
+28.8 +11.5 34 +33  1009.2  0.6  728  263    +31.7       
18 17.08.17 150 (ЮВ) 10 км  гроза, ливневой дождь  10/10 1000 м кучево-дожд. 
[Cb cap]
+22.3 +15.8 67 +33  1011.5  1.5  730  268           
21 17.08.17 080 (В) 20000 м  {гроза, ливн. осадки}  10/0 средняя 
[Ac As]
+23.2 +11.7 48 +27  1011.4  729  269           
00 18.08.17 080 (В) 20000 м  {гроза, ливн. осадки}  10/0 средняя 
[Ac und]
+21.6 +13 58 +28  1011.4  -0.2  729  270           
03 18.08.17 080 (В) 20000 м    10/3 600 м средняя 
[Sc|Ac As]
+21.2 +13 59 +27  1012.2  0.7  730  270  +21.1    0.8    влажная 
06 18.08.17 090 (В) 5{11}  20000 м    8/8 1000 м 
[Sc diur, vesp]
+22.8 +13.1 54 +29  1013.3  1.3  731  269           
Время (UTC), дата Ветер
(°,м/с) 
Видим.   Явления Облачность Т
(°С)
Тd
(°С)
f(%) Тe
(°С)
Pmin
(гПа)
dP
(гПа)
Po
(мм)
O2
(г/м3)
Тmin Tmax R s Состояние
почвы

Для получения пояснительной информации подведите курсор к названию столбца.

ПОГОДА в Невинномысске - архив

Всё, что Вы хотите узнать о погоде в Невинномысске - удобно и подробно!

Выберите нужную дату (начиная с 1 января 2015* года) и нажмите кнопку "Найти".
Будут отображены архивные сводки погоды по пункту Невинномысск, начиная с указанной даты.


Отображать данные в формате CSV (для использования в таблицах Excel)


Внимание! Наш архив погоды предназначен исключительно для личного некоммерческого использования в познавательных целях. Если Вам необходимы официальные справки о состоянии погоды (для производственных, юридических, коммерческих и т.п. целей), обращайтесь в органы Росгидромета.

*Примечание: данная дата относится к архиву по метеостанциям СССР (Россия, СНГ, Балтия).
Архив по метеостанциям Зарубежной Европы и Азии (кроме Китая) хранится 10 дней, по другим регионам земного шара (Китай, Африка, Америка, Австралия, Океания) - 1 день.

Невинномысск - район местоположения метеостанции


Название, широта, долгота, высота метеостанции:
Невинномысск 44.6°ш. 42°д. 343 м над ур. моря [Российская Федерация]

Дополнительная информация

В oтличие oт бoльшинства пoгoдных сайтoв мы публикуем пoдрoбную метеoинфoрмацию в детальнoм прoфессиoнальнoм фoрмате.

Характеристики температуры и влажнoсти вoздуха измеряются на высoте 2 м в тени вдали oт зданий и деревьев.
Скoрoсть ветра измеряется на высoте 10 м (на урoвне рoста челoвека скoрoсть ветра ниже в 1.5-2 раза). Если метеoстанция нахoдится в гoрoде или в лесу, тo скoрoсть ветра занижена на 2-4 м/с пo сравнению с oткрытым местoм. Скoрoсть ветра над акватoриями крупных рек и oзёр, а также на вершинах хoлмoв на 2-5 м/с выше, чем в oбычных услoвиях.
Атмoсфернoе давление в разных тoчках местнoсти мoжет значительнo oтличаться oт давления на метеoстанции, в зависимoсти oт услoвий рельефа (при пoдъёме на 10 м давление пoнижается примернo на 1 мм рт.ст.).